Tracking 19219 objects as of 21-Jul-2018
HD Live streaming from Space Station
objects crossing your sky now

CUBEBUG 2

Track CUBEBUG 2 now!
10-day predictions
CUBEBUG 2 is classified as:


NORAD ID: 39440
Int'l Code: 2013-066AA
Perigee: 592.5 km
Apogee: 707.7 km
Inclination: 97.6 °
Period: 97.6 minutes
Semi major axis: 7021 km
RCS: Unknown
Launch date: November 21, 2013
Source: Argentina (ARGN)
Launch site: Orenburg, Russia (OREN)
Uplink (MHz):
Downlink (MHz): 437.445
Beacon (MHz):
Mode: 1k2AFSK 9k6FSK
Call sign: CUBEB2-6
Status: Active

aabbcc
Your satellite tracking list
Your tracking list is empty




NASA's NSSDC Master Catalog

Two Line Element Set (TLE):
1 39440U 13066AA  18202.11190496  .00000186  00000-0  32717-4 0  9999
2 39440  97.6003 215.3315 0082093  85.4841 275.5741 14.75693740250924
Source of the keplerian elements: Caltech